LUCH 5A

Last updated on Oct. 23, 2020, 5:56 a.m. UTC

1 37951U 11074B   20296.85903873 -.00000058  00000-0  00000+0 0  9993
2 37951   3.5488 111.2906 0002670  63.6499 333.0565  1.00274503 32504
UTC
Height (km)
Latitude
Longitude
Inclination
Orbital Period
UTC large
Height (km)
Speed (km/s)
/
Latitude / Longitude
Inclination (degrees)
Orbital Period (minutes)
Azimuth
Elevation
Range (km)
Doppler Factor
iOS Compass Heading
iOS Angle

Next 30 passes for location: Hong Kong

Rise time Rise Azimuth (degrees) Set time Set Azimuth (degrees) Duration Max altitude (degrees)

No matching passes for this satellites